Flag for India Weather past 2 weeks in Varanasi, Uttar Pradesh, India

Now
73 °F

Broken clouds.


Feels Like: 75 °F
Forecast: 67 / 91 °F
Wind: 5 mph from Southeast

Location: Lucknow / Amausi

Current Time: Mar 30, 2015 at 7:14:18 PM

Latest Report: Mar 30, 2015 at 6:30 PM


Visibility: 3 mi

Pressure: 29.83 "Hg

Humidity: 74%

Dew point: 64 °F

Location of VaranasiLocation

Historic Weather in Varanasi — Graph

°F

Varanasi temperature yesterday

Maximum temperature yesterday: 99 °F (at 2:00 PM)
Minimum temperature yesterday: 64 °F (at 4:00 AM)
Average temperature yesterday: 84 °F

Past Weeks' High & Low Weather Summary

 TemperatureHumidityPressure
High100 °F (Mar 26, 2:30 PM)100% (Mar 16, 7:00 AM)30.12 "Hg (Mar 16, 7:00 AM)
Low57 °F (Mar 20, 6:00 AM)20% (Mar 28, 4:30 PM)29.53 "Hg (Mar 22, 3:00 PM)
Average78 °F59%29.90 "Hg
* Reported Mar 15 4:30 PM — Mar 30 5:00 PM, Varanasi, Weather by CustomWeather, © 2015

Note: Actual official high and low records may vary slightly from our data, if they occured in-between our weather recording intervals... More about our weather records

Advertising

Varanasi weather history for previous 24 hours

 ConditionsComfort  
Time TempWeatherWind HumidityBarometerVisibility
5:00 PM
Mon, Mar 30
77 °FScattered clouds.8 mph65%29.83 "Hg4 mi
4:30 PM79 °FScattered clouds.9 mph65%29.83 "Hg4 mi
4:00 PM77 °FScattered clouds.12 mph65%29.83 "Hg4 mi
3:30 PM79 °FPassing clouds.10 mph61%29.83 "Hg4 mi
2:30 PM75 °FBroken clouds.7 mph69%29.86 "Hg2 mi
2:00 PM75 °FBroken clouds.7 mph65%29.86 "Hg2 mi
1:30 PM73 °FMore clouds than sun.12 mph69%29.83 "Hg2 mi
12:30 PM73 °FMore clouds than sun.12 mph69%29.89 "Hg2 mi
12:00 PM73 °FMore clouds than sun.12 mph69%29.92 "Hg2 mi
11:30 AM72 °FMore clouds than sun.12 mph78%29.95 "Hg2 mi
11:00 AM73 °FMore clouds than sun.9 mph74%29.95 "Hg2 mi
9:30 AM73 °FMore clouds than sun.9 mph69%29.95 "Hg2 mi
9:00 AM73 °FMore clouds than sun.8 mph69%29.95 "Hg2 mi
8:30 AM73 °FLight rain. More clouds than sun.2 mph74%29.95 "Hg2 mi
8:00 AM73 °FBroken clouds.2 mph74%29.92 "Hg2 mi
7:30 AM73 °FBroken clouds.5 mph65%29.89 "Hg2 mi
7:00 AM73 °FBroken clouds.3 mph65%29.89 "Hg2 mi
6:30 AM73 °FBroken clouds.2 mph65%29.86 "Hg2 mi
6:00 AM73 °FPartly cloudy.3 mph65%29.83 "Hg2 mi
5:30 AM73 °FMostly cloudy.7 mph65%29.83 "Hg2 mi
5:00 AM75 °FLight rain. Mostly cloudy.6 mph65%29.83 "Hg2 mi
4:00 AM77 °FPartly cloudy.5 mph65%29.80 "Hg2 mi
2:00 AM77 °FPartly cloudy.5 mph65%29.80 "Hg1 mi
1:00 AM81 °FLight rain. Partly cloudy.9 mph58%29.86 "Hg1 mi
12:00 AM81 °FPartly cloudy.9 mph54%29.83 "Hg1 mi
9:00 PM
Sun, Mar 29
86 °FPartly cloudy.5 mph46%29.77 "Hg2 mi
8:30 PM86 °FPartly cloudy.5 mph43%29.74 "Hg2 mi
8:00 PM88 °FPartly cloudy.3 mph43%29.74 "Hg2 mi
7:30 PM90 °FPartly cloudy.2 mph38%29.74 "Hg3 mi
7:00 PM91 °FPartly cloudy.2 mph36%29.74 "Hg3 mi
Weather by CustomWeather, © 2015

See weather overviewHow to use our weather pages